Dewpoint
59 59 58 58 57 56 56 56 56 57 57 56 57 55 53 50 49 48 48 48 47 47 47 47 47 47 44 45 46 46 48 51 50 46 48 49 49 48 47 48 49 49 48
60 59 57 57 56 54 53 53 53 52 53 56 55 53 51 49 50 49 48 48 48 47 46 46 45 44 46 47 47 47 48 49 47 46 47 48 48 49 49 49 47 46 48
59 57 56 53 51 50 50 50 50 50 51 53 53 52 50 50 49 48 47 46 46 47 48 48 46 46 45 45 45 44 44 44 44 43 43 45 46 46 46 47 47 47 46
58 56 52 50 49 48 48 48 48 49 49 50 51 51 51 49 48 46 45 44 44 44 47 49 49 46 46 46 45 46 45 44 44 43 43 43 44 46 45 44 44 45 45
55 52 50 49 48 47 48 49 49 48 48 49 49 49 50 49 46 46 44 43 43 44 44 45 50 51 49 49 47 47 46 44 44 43 43 43 43 44 45 44 45 45 46
54 51 50 48 48 48 48 47 46 44 45 46 47 48 49 46 48 46 43 42 42 43 42 43 45 48 47 48 49 49 48 47 45 44 44 44 45 44 45 45 45 45 44
53 51 50 49 47 47 46 44 44 43 44 43 43 45 46 47 46 46 44 42 42 42 42 42 40 41 45 44 44 44 46 48 47 47 46 46 46 46 46 46 47 46 46
52 51 50 48 47 47 46 45 44 44 44 41 41 42 43 43 45 46 44 44 43 43 42 42 42 42 44 43 44 43 44 46 49 46 48 47 47 48 48 47 47 47 47
51 51 50 50 48 47 46 46 47 46 45 43 41 42 43 43 44 44 44 43 42 42 41 42 42 42 42 42 43 43 45 45 47 47 47 46 45 46 47 48 47 47 45
51 52 51 52 51 49 48 47 48 46 45 42 44 43 41 42 43 43 43 41 42 40 44 46 44 44 42 40 43 43 44 44 46 46 45 46 47 47 47 48 48 47 45
53 52 54 54 54 51 50 50 48 47 45 44 45 47 43 42 43 41 42 44 44 43 42 42 43 43 42 41 40 44 44 44 45 45 44 45 45 46 46 47 49 48 47
53 54 54 52 51 50 50 49 48 47 46 46 47 48 47 45 43 43 41 42 44 42 41 40 43 42 41 40 42 42 43 44 45 44 44 44 45 45 45 47 49 48 48
54 54 53 52 50 49 49 49 48 48 47 47 47 47 46 45 44 42 42 41 42 41 40 42 42 40 40 43 42 43 44 45 44 44 44 44 45 45 47 48 49 47 47
53 52 52 51 50 50 50 49 49 48 48 47 46 46 47 46 43 42 42 42 41 41 42 44 42 42 43 44 44 44 44 45 44 45 44 45 45 45 45 46 47 46 46
53 52 52 51 50 51 46 46 46 44 45 45 45 45 45 43 43 41 41 41 41 40 42 43 42 41 42 42 43 44 45 44 43 44 45 44 44 44 45 46 47 46 45
53 52 51 50 48 45 42 40 39 39 39 39 39 40 40 39 39 40 39 38 38 39 43 40 39 40 40 40 40 41 44 44 45 45 44 43 43 43 44 46 47 46 45
52 51 50 48 45 43 41 41 41 40 39 38 39 38 38 39 40 38 38 38 37 39 40 39 39 40 41 41 41 42 43 43 44 42 42 42 42 43 44 46 47 46 46
52 47 50 47 46 43 42 41 41 40 39 41 39 38 37 38 38 38 38 39 40 40 39 39 39 41 42 40 41 42 41 40 40 40 41 41 42 42 43 44 46 46 46
50 49 50 48 46 43 42 42 43 41 40 40 41 40 39 38 37 37 38 41 40 38 38 38 39 41 42 41 41 40 39 37 37 38 38 38 40 41 42 42 45 40 41
51 46 47 49 46 46 46 45 45 46 44 43 42 42 42 40 40 40 41 41 41 41 39 38 39 41 40 39 40 40 37 35 34 34 36 37 38 39 41 43 44 45 44
50 47 44 46 46 45 45 44 45 44 45 45 45 42 34 40 40 41 41 41 40 40 39 41 40 39 38 39 40 37 34 32 32 32 34 36 37 37 39 44 44 45 43
48 46 45 45 44 43 44 45 45 44 44 45 40 36 32 39 40 40 39 38 38 39 39 40 39 39 39 38 36 33 29 30 32 33 33 34 35 37 39 42 43 44 43
47 46 45 45 45 43 45 43 42 43 44 41 36 36 35 37 38 38 38 39 40 40 40 40 40 37 35 35 33 29 29 31 32 32 33 34 35 36 37 42 42 42 42
47 46 45 44 43 41 42 40 39 39 41 37 37 37 37 37 38 40 40 40 40 40 40 40 38 36 36 34 32 30 30 31 31 32 33 34 35 36 37 41 40 39 41
47 46 45 46 42 39 37 36 36 40 39 39 38 38 39 39 39 39 40 40 40 40 40 40 39 37 32 29 29 30 31 30 31 31 34 35 36 37 36 36 36 37 38
44 44 43 41 40 38 36 34 33 35 38 39 39 39 39 39 39 40 40 40 40 40 40 39 38 34 30 30 30 29 29 31 31 31 34 34 33 34 35 36 35 34 35
Lifted_Index
-2 -2 -2 -2 -1 -0 1 2 3 4 5 5 5 6 6 7 8 9 10 10 10 9 9 8 7 7 7 7 6 5 5 5 5 5 5 6 6 7 7 7 8 9 9
-1 -1 -1 -0 0 1 2 3 4 5 5 5 6 6 7 7 8 8 9 10 10 9 9 8 8 8 8 7 7 6 6 5 5 5 5 6 7 7 7 8 9 9 9
1 1 1 2 2 3 4 4 5 5 6 6 6 7 7 7 7 8 9 9 9 9 8 8 8 8 8 8 8 7 7 6 6 6 6 7 7 8 8 9 9 10 10
2 2 3 3 4 4 5 6 6 6 7 7 7 7 7 7 8 9 9 9 9 8 8 7 7 7 7 8 8 8 8 8 8 8 8 8 8 9 9 9 9 9 9
3 3 4 4 5 6 6 7 8 8 8 8 8 8 8 8 8 8 9 9 9 8 8 7 7 7 7 7 8 8 8 8 8 9 9 9 9 9 9 9 9 9 9
4 4 5 5 6 7 8 8 9 9 10 10 9 8 8 8 8 8 8 8 8 8 8 8 7 7 7 8 8 8 8 8 8 8 8 8 8 8 8 8 8 8 8
5 5 5 6 6 7 8 9 9 10 10 10 9 9 8 8 7 7 7 7 8 8 8 8 8 8 8 8 8 8 8 8 8 8 8 8 8 8 8 8 8 8 8
5 5 5 6 7 8 8 9 10 10 10 9 9 8 8 7 7 7 7 7 7 8 8 8 8 8 9 9 9 9 9 9 8 9 9 8 8 8 8 8 8 8 8
5 5 6 6 7 8 8 8 10 10 10 9 8 7 7 7 7 7 7 7 7 7 8 8 8 9 9 9 9 9 9 9 9 9 9 9 9 8 8 8 8 8 7
5 5 6 7 7 8 8 8 10 10 9 8 7 6 6 6 6 7 7 7 7 7 8 8 9 9 10 10 10 10 10 9 9 9 9 9 9 9 8 8 8 8 7
5 5 6 7 7 7 8 8 9 9 8 7 6 6 6 6 6 6 7 7 8 8 8 9 9 10 10 10 10 10 10 9 9 10 10 9 9 9 8 8 8 8 8
5 6 6 7 7 7 8 8 8 8 7 7 6 6 6 6 6 6 7 7 8 9 9 9 9 10 10 10 10 10 10 10 10 10 10 9 9 9 8 8 8 8 8
6 6 6 7 7 7 8 8 8 7 7 7 6 6 6 6 6 6 6 7 8 9 10 10 10 10 10 10 10 10 10 10 10 10 9 9 9 8 8 8 8 8 8
6 6 7 7 7 7 7 7 7 7 7 7 7 7 7 7 7 7 7 8 9 10 10 10 10 10 10 10 11 11 10 10 10 10 9 9 8 8 8 8 7 7 7
6 7 7 8 7 7 7 7 7 7 7 8 8 8 9 9 9 9 10 10 10 10 10 10 10 11 11 11 11 11 11 10 10 10 9 9 8 8 8 7 7 6 6
7 7 7 7 7 7 7 7 7 7 8 8 8 8 9 10 11 11 11 11 10 10 10 11 11 11 11 11 11 11 10 10 10 10 9 8 8 8 7 7 6 6 6
6 6 6 7 7 7 8 8 8 8 8 8 8 8 9 10 10 11 11 10 10 10 10 11 11 11 11 11 11 10 10 10 10 10 9 8 8 7 7 7 6 6 6
6 6 6 6 7 7 8 8 8 7 7 7 7 7 8 9 10 10 10 10 10 10 10 10 11 11 10 10 10 10 10 10 9 9 9 8 8 7 7 7 7 6 6
5 6 6 6 7 7 7 7 7 7 7 7 7 7 7 8 9 9 10 10 10 10 10 10 10 10 10 10 10 10 10 9 9 9 8 8 7 7 7 7 7 6 6
5 5 6 6 7 7 7 7 7 7 7 7 7 7 7 8 9 9 9 9 10 10 9 9 9 9 9 9 10 10 10 10 9 8 8 7 7 7 7 7 7 7 6
4 5 5 6 7 7 7 7 7 7 7 7 7 8 8 9 9 9 9 9 9 9 9 9 9 9 9 10 10 10 10 10 9 8 7 7 7 7 7 7 7 6 6
5 5 6 7 7 7 7 7 7 7 7 7 8 8 9 9 9 9 9 9 9 9 9 9 9 9 10 10 10 10 10 10 8 7 7 6 6 6 6 6 6 6 6
6 6 7 7 7 8 7 7 7 7 8 8 8 9 8 8 8 8 9 9 9 9 9 9 9 10 10 11 11 11 10 9 8 7 6 6 6 6 6 6 6 6 6
7 7 7 7 7 7 7 7 7 8 8 9 9 9 8 8 8 8 8 8 8 8 9 9 9 10 11 11 12 11 10 9 7 7 6 6 6 6 6 6 6 6 7
7 7 7 7 7 7 7 8 8 9 9 9 9 8 8 8 8 8 8 8 8 8 8 8 9 10 10 11 11 11 10 9 7 7 6 6 6 6 6 6 6 7 7
7 7 7 7 7 7 7 8 9 9 9 9 9 8 8 8 8 8 8 8 8 8 8 8 9 9 10 10 11 11 10 9 7 7 6 6 6 7 6 6 6 6 7